Location: Bougoudala
(13.2282°N, 4.9477°W)
Time: 23:43:06
(UTC+00:00)

ASC 2 Rocket - Pass Details

Date: 29 January 2020
Orbit: 555 x 2345 km, 24.0° (Epoch: 19 February)

Event Time Altitude Azimuth Distance (km) Brightness Sun altitude
Rises 19:21:06 0° 259° (W) 3,495 8.8 -15.3°
Reaches altitude 10° 19:24:06 10° 264° (W) 2,320 7.3 -16.0°
Maximum altitude 19:29:08 51° 340° (NNW) 789 3.6 -17.2°
Enters shadow 19:30:57 30° 40° (NE) 1,071 3.8 -17.6°
